Weather History for Greenville/Spartanburg, SC

Change the Weather History Date:

Thursday, September 12, 2013

  Actual Average Record
Temperature  
Mean Temperature 80 °F 73 °F  
Max Temperature 91 °F 83 °F 95 °F (1962)
Min Temperature 68 °F 63 °F 45 °F (1917)
Degree Days  
Heating Degree Days 0 0  
Month to date heating degree days 0 0  
Since 1 July heating degree days 0 0  
Cooling Degree Days 15 9  
Month to date cooling degree days 150 121  
Year to date cooling degree days 1399 1556  
Growing Degree Days 29 (Base 50)    
Moisture  
Dew Point 68 °F    
Average Humidity 71    
Maximum Humidity 97    
Minimum Humidity 44    
Precipitation  
Precipitation T in 0.11 in 1.47 in (2014)
Month to date precipitation 0.02 1.43  
Year to date precipitation 54.37 33.94  
Snow  
Snow 0.00 in 0.00 in 0.00 in ()
Month to date snowfall 0.0 0.0  
Since 1 July snowfall 0.0 0.0  
Since 1 September snowfall 0.0 0.0  
Snow Depth 0.00 in    
Sea Level Pressure  
Sea Level Pressure 29.98 in    
Wind  
Wind Speed 3 mph (WSW)    
Max Wind Speed 6 mph    
Max Gust Speed 24 mph    
Visibility 8 miles    
Events Thunderstorm    
T = Trace of Precipitation, MM = Missing Value Source: NWS Daily Summary

Daily Weather History Graph

Daily Weather History Graph

Search for Another Location

Airport:

Trip Planner

Search our weather history database for the weather conditions in past years. The results will help you decide how hot, cold, wet, or windy it might be!

Date:

Astronomy

Sep. 12, 2013 Rise Set
Actual Time 7:09 AM EDT 7:39 PM EDT
Civil Twilight 6:44 AM EDT 8:05 PM EDT
Nautical Twilight 6:14 AM EDT 8:34 PM EDT
Astronomical Twilight 5:44 AM EDT 9:05 PM EDT
Moon 2:20 PM EDT (9/12) No Moon Set
Length of Visible Light 13h 20m
Length of Day
12h 29m
Waxing Crescent, 50% of the Moon is Illuminated
Sep 12
Waxing Crescent
Sep 12
First Quarter
Sep 19
Full
Sep 26
Last Quarter
Oct 4
New

Hourly Weather History & Observations

Time (EDT) Temp. Heat Index Dew Point Humidity Pressure Visibility Wind Dir Wind Speed Gust Speed Precip Events Conditions
12:53 AM 72.0 °F - 68.0 °F 87% 30.06 in 8.0 mi Calm Calm - N/A   Clear
1:53 AM 71.1 °F - 66.9 °F 87% 30.05 in 6.0 mi SW 3.5 mph - N/A   Clear
2:53 AM 71.1 °F - 66.9 °F 87% 30.04 in 8.0 mi SSW 5.8 mph - N/A   Scattered Clouds
3:53 AM 72.0 °F - 68.0 °F 87% 30.03 in 6.0 mi SW 3.5 mph - N/A   Overcast
4:53 AM 70.0 °F - 68.0 °F 93% 30.04 in 6.0 mi SW 4.6 mph - N/A   Overcast
5:53 AM 70.0 °F - 68.0 °F 93% 30.02 in 6.0 mi WSW 4.6 mph - N/A   Clear
6:53 AM 69.1 °F - 66.9 °F 93% 30.03 in 4.0 mi Calm Calm - N/A   Clear
7:42 AM 69.8 °F - 68.0 °F 94% 30.07 in 2.5 mi West 3.5 mph - N/A   Partly Cloudy
7:49 AM 69.8 °F - 68.0 °F 94% 30.07 in 3.0 mi West 3.5 mph - N/A   Partly Cloudy
7:53 AM 70.0 °F - 68.0 °F 93% 30.04 in 5.0 mi WSW 3.5 mph - N/A   Clear
8:53 AM 75.0 °F - 70.0 °F 84% 30.03 in 5.0 mi WSW 4.6 mph - N/A   Haze
9:53 AM 79.0 °F - 70.0 °F 74% 30.02 in 9.0 mi West 3.5 mph - N/A   Clear
10:53 AM 82.9 °F 86.5 °F 69.1 °F 63% 30.01 in 9.0 mi Variable 4.6 mph - N/A   Clear
11:53 AM 86.0 °F 88.8 °F 66.9 °F 53% 30.00 in 10.0 mi Variable 3.5 mph - N/A   Clear
12:53 PM 88.0 °F 90.7 °F 66.9 °F 49% 29.98 in 10.0 mi Variable 5.8 mph - N/A   Partly Cloudy
1:53 PM 90.0 °F 91.7 °F 64.9 °F 43% 29.95 in 10.0 mi Calm Calm - N/A   Partly Cloudy
2:53 PM 87.1 °F 88.9 °F 64.9 °F 48% 29.92 in 10.0 mi West 8.1 mph - N/A Thunderstorm Clear
3:53 PM 75.0 °F - 66.0 °F 73% 29.93 in 10.0 mi Variable 5.8 mph - N/A   Clear
3:55 PM 75.2 °F - 66.2 °F 73% 29.96 in 10.0 mi Variable 3.5 mph - N/A   Clear
4:53 PM 75.0 °F - 66.9 °F 76% 29.90 in 10.0 mi NNW 3.5 mph - 0.00 in   Scattered Clouds
5:53 PM 77.0 °F - 68.0 °F 74% 29.87 in 10.0 mi North 3.5 mph - N/A   Clear
6:53 PM 75.9 °F - 70.0 °F 82% 29.88 in 10.0 mi Calm Calm - N/A   Clear
7:53 PM 75.0 °F - 69.1 °F 82% 29.87 in 10.0 mi Calm Calm - N/A   Clear
8:53 PM 73.0 °F - 69.1 °F 87% 29.88 in 10.0 mi West 3.5 mph - N/A   Clear
9:53 PM 72.0 °F - 68.0 °F 87% 29.89 in 10.0 mi WSW 3.5 mph - N/A   Clear
10:53 PM 71.1 °F - 69.1 °F 93% 29.88 in 10.0 mi West 3.5 mph - N/A   Clear
11:53 PM 72.0 °F - 69.1 °F 91% 29.85 in 10.0 mi Calm Calm - N/A   Unknown